TimeCDT,TemperatureF,Dew PointF,Humidity,Sea Level PressureIn,VisibilityMPH,Wind Direction,Wind SpeedMPH,Gust SpeedMPH,PrecipitationIn,Events,Conditions,WindDirDegrees,DateUTC
12:15 AM,37.4,21.2,52,30.23,10.0,NW,8.1,-,N/A,,Clear,320,2013-05-12 05:15:00
12:35 AM,37.4,21.2,52,30.24,10.0,NNW,9.2,-,N/A,,Clear,330,2013-05-12 05:35:00
12:55 AM,37.4,21.2,52,30.24,10.0,NNW,9.2,-,N/A,,Clear,330,2013-05-12 05:55:00
1:15 AM,39.2,21.2,49,30.24,10.0,NNW,9.2,-,N/A,,Clear,340,2013-05-12 06:15:00
1:35 AM,41.0,21.2,45,30.24,10.0,North,9.2,-,N/A,,Clear,350,2013-05-12 06:35:00
1:55 AM,39.2,21.2,49,30.24,10.0,North,8.1,-,N/A,,Clear,350,2013-05-12 06:55:00
2:15 AM,35.6,21.2,56,30.24,10.0,NNW,5.8,-,N/A,,Clear,330,2013-05-12 07:15:00
2:35 AM,37.4,21.2,52,30.24,10.0,WNW,3.5,-,N/A,,Clear,300,2013-05-12 07:35:00
2:55 AM,35.6,21.2,56,30.24,10.0,NW,4.6,-,N/A,,Clear,310,2013-05-12 07:55:00
3:15 AM,35.6,19.4,52,30.23,10.0,WNW,5.8,-,N/A,,Clear,300,2013-05-12 08:15:00
3:35 AM,33.8,19.4,56,30.23,10.0,WNW,5.8,-,N/A,,Clear,300,2013-05-12 08:35:00
3:55 AM,33.8,19.4,56,30.23,10.0,WNW,4.6,-,N/A,,Clear,300,2013-05-12 08:55:00
4:36 AM,33.8,21.2,60,30.23,10.0,NW,4.6,-,N/A,,Clear,310,2013-05-12 09:36:00
4:55 AM,32.0,21.2,64,30.23,10.0,WNW,3.5,-,N/A,,Clear,300,2013-05-12 09:55:00
5:15 AM,30.2,21.2,69,30.24,10.0,NW,3.5,-,N/A,,Clear,310,2013-05-12 10:15:00
5:36 AM,30.2,21.2,69,30.24,10.0,NW,4.6,-,N/A,,Clear,310,2013-05-12 10:36:00
5:55 AM,30.2,21.2,69,30.24,10.0,Calm,Calm,-,N/A,,Clear,0,2013-05-12 10:55:00
6:15 AM,30.2,21.2,69,30.24,10.0,WNW,4.6,-,N/A,,Clear,300,2013-05-12 11:15:00
6:36 AM,32.0,23.0,69,30.24,10.0,WNW,5.8,-,N/A,,Clear,300,2013-05-12 11:36:00
6:55 AM,33.8,23.0,65,30.25,10.0,West,4.6,-,N/A,,Clear,280,2013-05-12 11:55:00
7:15 AM,35.6,23.0,60,30.25,10.0,WNW,5.8,-,N/A,,Clear,290,2013-05-12 12:15:00
7:36 AM,37.4,24.8,60,30.26,10.0,WNW,6.9,-,N/A,,Clear,290,2013-05-12 12:36:00
7:55 AM,37.4,24.8,60,30.25,10.0,NW,6.9,-,N/A,,Clear,310,2013-05-12 12:55:00
8:15 AM,41.0,24.8,53,30.26,10.0,NW,6.9,-,N/A,,Clear,310,2013-05-12 13:15:00
8:36 AM,42.8,24.8,49,30.26,10.0,NW,4.6,-,N/A,,Clear,320,2013-05-12 13:36:00
8:55 AM,44.6,21.2,39,30.26,10.0,NNW,5.8,-,N/A,,Clear,330,2013-05-12 13:55:00
9:15 AM,46.4,17.6,32,30.26,10.0,NW,6.9,-,N/A,,Clear,320,2013-05-12 14:15:00
9:36 AM,48.2,17.6,30,30.25,10.0,WNW,11.5,-,N/A,,Clear,300,2013-05-12 14:36:00
9:55 AM,48.2,17.6,30,30.25,10.0,NW,10.4,-,N/A,,Clear,310,2013-05-12 14:55:00
10:15 AM,50.0,15.8,26,30.25,10.0,North,13.8,18.4,N/A,,Clear,350,2013-05-12 15:15:00
10:36 AM,51.8,15.8,24,30.25,10.0,NNW,12.7,-,N/A,,Clear,330,2013-05-12 15:36:00
10:55 AM,51.8,14.0,22,30.24,10.0,NNW,12.7,18.4,N/A,,Clear,340,2013-05-12 15:55:00
11:15 AM,51.8,12.2,21,30.25,10.0,NW,9.2,17.3,N/A,,Clear,320,2013-05-12 16:15:00
11:35 AM,51.8,10.4,19,30.24,10.0,North,16.1,21.9,N/A,,Clear,350,2013-05-12 16:35:00
11:55 AM,53.6,12.2,19,30.23,10.0,North,11.5,16.1,N/A,,Clear,360,2013-05-12 16:55:00
12:15 PM,53.6,12.2,19,30.23,10.0,NW,12.7,20.7,N/A,,Clear,320,2013-05-12 17:15:00
12:35 PM,55.4,12.2,18,30.22,10.0,North,17.3,23.0,N/A,,Clear,350,2013-05-12 17:35:00
12:55 PM,55.4,12.2,18,30.21,10.0,NNW,13.8,23.0,N/A,,Clear,330,2013-05-12 17:55:00
1:15 PM,57.2,15.8,20,30.20,10.0,North,16.1,-,N/A,,Clear,350,2013-05-12 18:15:00
1:36 PM,55.4,12.2,18,30.20,10.0,NW,10.4,-,N/A,,Clear,310,2013-05-12 18:36:00
1:55 PM,57.2,12.2,17,30.19,10.0,NW,13.8,18.4,N/A,,Clear,310,2013-05-12 18:55:00
2:15 PM,57.2,12.2,17,30.18,10.0,NW,8.1,19.6,N/A,,Clear,320,2013-05-12 19:15:00
2:36 PM,60.8,10.4,14,30.17,10.0,NW,10.4,20.7,N/A,,Clear,320,2013-05-12 19:36:00
2:55 PM,59.0,10.4,15,30.17,10.0,North,9.2,-,N/A,,Clear,350,2013-05-12 19:55:00
3:15 PM,60.8,10.4,14,30.17,10.0,NNW,12.7,-,N/A,,Clear,340,2013-05-12 20:15:00
3:36 PM,60.8,10.4,14,30.16,10.0,NNW,17.3,21.9,N/A,,Clear,330,2013-05-12 20:36:00
3:55 PM,60.8,8.6,13,30.16,10.0,NW,10.4,-,N/A,,Clear,320,2013-05-12 20:55:00
4:15 PM,60.8,8.6,13,30.15,10.0,NW,11.5,21.9,N/A,,Clear,310,2013-05-12 21:15:00
4:36 PM,60.8,10.4,14,30.14,10.0,NNW,10.4,-,N/A,,Clear,330,2013-05-12 21:36:00
4:55 PM,60.8,8.6,13,30.14,10.0,NW,10.4,18.4,N/A,,Clear,320,2013-05-12 21:55:00
5:15 PM,60.8,6.8,12,30.13,10.0,NW,10.4,-,N/A,,Clear,310,2013-05-12 22:15:00
5:36 PM,62.6,6.8,11,30.13,10.0,North,9.2,17.3,N/A,,Clear,350,2013-05-12 22:36:00
5:55 PM,60.8,6.8,12,30.13,10.0,NNW,11.5,18.4,N/A,,Clear,330,2013-05-12 22:55:00
6:15 PM,62.6,8.6,12,30.12,10.0,NW,6.9,17.3,N/A,,Clear,310,2013-05-12 23:15:00
6:36 PM,60.8,8.6,13,30.12,10.0,North,9.2,17.3,N/A,,Clear,350,2013-05-12 23:36:00
6:55 PM,60.8,10.4,14,30.11,10.0,NW,10.4,18.4,N/A,,Clear,310,2013-05-12 23:55:00
7:15 PM,60.8,10.4,14,30.11,10.0,NNW,10.4,-,N/A,,Clear,340,2013-05-13 00:15:00
7:36 PM,59.0,12.2,16,30.11,10.0,NNW,6.9,-,N/A,,Clear,330,2013-05-13 00:36:00
7:55 PM,59.0,12.2,16,30.11,10.0,NNW,9.2,-,N/A,,Clear,330,2013-05-13 00:55:00
8:15 PM,57.2,15.8,20,30.11,10.0,NNW,6.9,-,N/A,,Clear,340,2013-05-13 01:15:00
8:36 PM,55.4,15.8,21,30.11,10.0,North,5.8,-,N/A,,Clear,360,2013-05-13 01:36:00
8:55 PM,55.4,15.8,21,30.11,10.0,NNE,4.6,-,N/A,,Clear,30,2013-05-13 01:55:00
9:15 PM,53.6,15.8,22,30.11,10.0,NE,3.5,-,N/A,,Clear,50,2013-05-13 02:15:00
9:34 PM,55.4,14.0,20,30.11,10.0,NE,3.5,-,N/A,,Clear,50,2013-05-13 02:34:00
9:55 PM,51.8,17.6,26,30.11,10.0,East,4.6,-,N/A,,Clear,80,2013-05-13 02:55:00
10:15 PM,48.2,21.2,34,30.11,10.0,East,3.5,-,N/A,,Clear,100,2013-05-13 03:15:00
10:35 PM,46.4,21.2,37,30.11,10.0,East,5.8,-,N/A,,Clear,90,2013-05-13 03:35:00
10:55 PM,48.2,17.6,30,30.11,10.0,SE,3.5,-,N/A,,Clear,130,2013-05-13 03:55:00
11:14 PM,46.4,19.4,34,30.11,10.0,ESE,4.6,-,N/A,,Clear,110,2013-05-13 04:14:00
11:35 PM,46.4,19.4,34,30.11,10.0,ESE,4.6,-,N/A,,Clear,120,2013-05-13 04:35:00
11:56 PM,44.6,19.4,37,30.10,10.0,ESE,5.8,-,N/A,,Clear,120,2013-05-13 04:56:00